User: anonymous   Login
Location: Plum
(40.5000°N, 79.7500°W)
Time: 14:21:27
(UTC-04:00)
Language:

MOZ.5/SAFIR/RUBIN 5/SL-8 - Orbit

View from above orbital plane
View from above orbital plane
View from above satellite
View from above satellite

Ground track
Ground track

The orbit data is extracted from the following two-line orbital elements,

1 28898U 05043G   16209.84990636  .00000060  00000-0  21644-4 0  9997
2 28898  97.8843   8.5743 0021015 125.5179 234.7986 14.60113671572500
Epoch (UTC): 27 July 2016 20:23:51
Eccentricity: 0.0021015
inclination: 97.8843°
perigee height: 678 km
apogee height: 707 km
right ascension of ascending node: 8.5743°
argument of perigee: 125.5179°
revolutions per day: 14.60113671
mean anomaly at epoch: 234.7986°
orbit number at epoch: 57250

The dashed part of the orbit path shows where the satellite is in the earth's shadow,  

DLR